Overview Statistics Trail Chart Weather Telemetry Raw packets
 

This is the latest recevied weather packets stored in our database for station/object G4KVI. If no packets are shown the sender has not sent any weather packets the latest 10 day(s).

<< 59 60 61 62 63 64 65 >>
Time Temp. Humidity Pressure Rain* Wind** Luminosity Snow
1788188104 20.56° C 58% 1018.2 hPa 0 mm - 530 W/m² -
1788187804 20.56° C 60% 1018.3 hPa 0 mm - 491 W/m² -
1788187504 20° C 61% 1017.9 hPa 0 mm - 562 W/m² -
1788187204 20° C 60% 1018.4 hPa 0 mm - 407 W/m² -
1788186904 20° C 61% 1018.3 hPa 0 mm - 275 W/m² -
1788186604 20° C 60% 1018 hPa 0 mm - 450 W/m² -
1788186304 20.56° C 59% 1017.8 hPa 0 mm - 437 W/m² -
1788186004 20.56° C 60% 1017.8 hPa 0 mm - 553 W/m² -
1788185704 20.56° C 59% 1017.9 hPa 0 mm - 251 W/m² -
1788185404 21.11° C 61% 1017.9 hPa 0 mm - 412 W/m² -
1788185104 20.56° C 65% 1017.8 hPa 0 mm - 309 W/m² -
1788184804 20° C 67% 1017.6 hPa 0 mm - 348 W/m² -
1788184504 19.44° C 67% 1017.6 hPa 0 mm - 255 W/m² -
1788184204 20° C 67% 1017.5 hPa 0 mm - 178 W/m² -
1788183904 20° C 67% 1017.6 hPa 0 mm - 351 W/m² -
1788183604 20° C 67% 1017.3 hPa 0 mm - 201 W/m² -
1788183304 20° C 67% 1017.4 hPa 0 mm - 264 W/m² -
1788183004 20° C 67% 1017.2 hPa 0 mm - 306 W/m² -
1788182704 20° C 68% 1017.3 hPa 0 mm - 250 W/m² -
1788182404 20° C 69% 1017 hPa 0 mm - 183 W/m² -
1788182104 20° C 67% 1017.1 hPa 0 mm - 355 W/m² -
1788181804 20° C 66% 1017 hPa 0 mm - 303 W/m² -
1788181504 19.44° C 67% 1017 hPa 0 mm - 329 W/m² -
1788181204 20° C 67% 1016.9 hPa 0 mm - 355 W/m² -
1788180904 20° C 65% 1017 hPa 0 mm - 337 W/m² -

* Rain latest hour (hover to see other rain measurements)
** Current wind speed in m/s (hover to see current wind gust speed)